Regional Weather Roundup
Issued by NWS

Home | Current Version | Previous Version | Graphics & Text | Print | Product List | Glossary On
Versions: 1 2 3 4 5 6 7 8 9 10 11 12 13 14 15 16 17 18 19 20 21 22 23 24 25 26 27 28
000
ASUS45 KTFX 222110
RWRMT
MONTANA REGIONAL WEATHER ROUNDUP
NATIONAL WEATHER SERVICE GREAT FALLS MT
300 PM MDT SUN APR 22 2018

NOTE: "FAIR" INDICATES FEW OR NO CLOUDS BELOW 12000 FEET WITH NO
SIGNIFICANT WEATHER AND/OR OBSTRUCTIONS TO VISIBILITY.

MTZ001>007-043-222200-
WEST OF THE DIVIDE

CITY           SKY/WX    TMP DP  RH WIND       PRES   REMARKS
KALISPELL      PTSUNNY   54  20  26 S6        30.16S
MISSOULA       FAIR      57  22  25 NW8       30.13F
BUTTE          FAIR      58  26  29 N10       30.07F
MULLAN PASS    FAIR      41  15  35 N5        30.17S
ANACONDA         N/A     54  23  30 N7        30.09F
DEER LODGE       N/A     54  25  32 N5        30.12F
HAMILTON         N/A     55  25  30 MISG      30.11F
PLAINS           N/A     60  25  26 NE2       30.16F
RONAN            N/A     54  19  26 CALM      30.18F
$$

MTZ008-052>055-222200-
SOUTHWEST MONTANA

CITY           SKY/WX    TMP DP  RH WIND       PRES   REMARKS
BOZEMAN        PTSUNNY   60  27  28 VRB5      30.05F
DILLON         FAIR      61  26  26 VRB3      30.01F
ENNIS          MOSUNNY   59  28  31 N13G21    30.07F
W YELLOWSTONE  FAIR      54  27  35 SW15G23   30.08F
THREE FORKS      N/A     62  27  26 NW1       30.04F
TWIN BRIDGES     N/A     63  25  23 NW3       30.01F
$$

MTZ009-010-012-014-046-048-049-054-222200-
EAST SLOPES AND CENTRAL MONTANA

CITY           SKY/WX    TMP DP  RH WIND       PRES   REMARKS
CUT BANK       FAIR      54  14  20 W13G20    30.13R
GREAT FALLS    FAIR      57  15  19 W10G16    30.11F
HELENA         FAIR      62  26  25 W10       30.09F
CHOTEAU          N/A     54  16  22 S5        30.14S
WHITE SULPHUR    N/A     55  23  28 N9        30.07F
$$

MTZ011-013-016-021-045-047-050-051-222200-
NORTH CENTRAL MONTANA

CITY           SKY/WX    TMP DP  RH WIND       PRES   REMARKS
HAVRE          FAIR      59  22  24 SW15G22   30.11S
LEWISTOWN      FAIR      57  25  29 CALM      30.09S
N BAR RANCH    PTSUNNY   57  23  26 N7        30.11S
CHINOOK          N/A     61  21  21 MISG      30.11S
$$

MTZ017>020-022>027-061-062-222200-
NORTHEAST MONTANA

CITY           SKY/WX    TMP DP  RH WIND       PRES   REMARKS
GLASGOW        FAIR      64  24  21 W13       30.09F
GLENDIVE       PTSUNNY   63  20  19 N5        30.11F
JORDAN           N/A     64  26  23 W9        30.10F
MALTA          SUNNY     59  27  29 W10       30.08F
SIDNEY         FAIR      66  21  18 W6        30.09F
WOLF POINT     FAIR      66  24  20 W9        30.10F
PLENTYWOOD       N/A     63  23  22 MISG      30.07F
POPLAR           N/A     63  21  20 W6        30.09F
SCOBEY           N/A     61  24  24 W22       30.07S
$$

MTZ028>42-056>058-222200-
SOUTHCENTRAL AND SOUTHEAST MONTANA

CITY           SKY/WX    TMP DP  RH WIND       PRES   REMARKS
BAKER          FAIR      64  22  20 CALM      30.11F
BILLINGS       FAIR      64  29  26 NE12G17   30.06F
LIVINGSTON     PTSUNNY   63  32  31 NW5       30.04F
MILES CITY     FAIR      63  24  22 CALM      30.09F
BIG TIMBER     SUNNY     61  28  29 VRB8      30.07F
EKALAKA          N/A     63  22  21 N7        30.07F
FORSYTH          N/A     63  25  23 E8        30.09F
LAUREL           N/A     64  28  25 NE14G21   30.06S
$$

REGIONAL REPORTS...DAKOTAS

CITY           SKY/WX    TMP DP  RH WIND       PRES   REMARKS
WILLISTON      PTSUNNY   65  24  21 NW9       30.10F
MINOT          PTSUNNY   62  27  26 SW6       30.10S
DICKINSON      FAIR      67  21  17 W5        30.08F
BEACH          FAIR      63  18  17 W6G13     30.14F
CROSBY         FAIR      61  27  27 SW15      30.09F
TIOGA          FAIR      61  30  31 W13G24    30.11F
BISMARCK       FAIR      70  39  32 SW9G20    30.08F
GRAND FORKS    FAIR      61  45  55 SW15G28   30.14F
FARGO          PTSUNNY   65  37  35 SW16G28   30.17F
BUFFALO SD       N/A     68  32  26 NE10      30.02F
RAPID CITY     FAIR      66  38  35 NE7       30.08F
$$

REGIONAL REPORTS...WYOMING/IDAHO/WASHINGTON

CITY           SKY/WX    TMP DP  RH WIND       PRES   REMARKS
GILLETTE       FAIR      67  41  38 VRB5      30.06F
SHERIDAN       FAIR      66  34  30 VRB5      30.05F
BUFFALO WY     FAIR      68  34  28 SE17G23   30.06F
CODY           FAIR      64  29  26 VRB7      30.05F
YELLOWSTONE LA   N/A     53  23  31 SW8       30.17F
IDAHO FALLS    FAIR      69  32  25 SW20      30.03F
SALMON         FAIR      63  29  27 VRB5      29.99F
BOISE          FAIR      62  28  27 NW20G29   30.06F
SPOKANE        PTSUNNY   53  21  28 CALM      30.23F
$$

REGIONAL REPORTS...ALBERTA

CITY           SKY/WX    TMP DP  RH WIND       PRES   REMARKS
CALGARY        MOSUNNY   52  14  22 N15G23    30.14S
CARDSTON         N/A     50  18  27 W6          N/A
EDMONTON       PTSUNNY   48  25  40 NW20G31   30.12R
FORT MCMURRAY  CLOUDY    46  36  66 NW18G24   29.95R
HIGH LEVEL     MOSUNNY   43  28  56 W7        30.10S
LETHBRIDGE     PTSUNNY   52  18  25 N16       30.15R
LLOYDMINSTER   CLOUDY    43  34  70 NW21G32   30.03R
MEDICINE HAT   PTSUNNY   57  19  23 SW9       30.12S
MILK RIVER       N/A     54  19  26 N9G17       N/A
ONEFOUR          N/A     55  23  28 NW16G26     N/A
PEACE RIVER    MOSUNNY   46  25  42 W10G20    30.16R
PINCHER CREEK  PTSUNNY   46  16  29 NE15      30.16R
WATERTON GATE    N/A     48  14  25 SW9         N/A
$$

REGIONAL REPORTS...SASKATCHEWAN

CITY           SKY/WX    TMP DP  RH WIND       PRES   REMARKS
ESTEVAN        MOSUNNY   64  27  24 W18G25    30.07F
MOOSE JAW        N/A     61  21  21 W25G33      N/A
PRINCE ALBERT  PTSUNNY   48  36  61 W23G33    29.89R
REGINA         MOSUNNY   59  27  29 W23G36    30.05S
ROCKGLEN         N/A     59  21  23 W15G22      N/A
SASKATOON      PTSUNNY   52  34  50 W30G39    29.98R
SWIFT CURRENT  MOSUNNY   54  21  28 W20G30    30.08S
VAL MARIE        N/A     59  23  25 W15G24      N/A
$$




USA.gov is the U.S. government's official web portal to all federal, state and local government web resources and services.